Home > Weather > Richmond Hill > Past weeks

Flag for Canada Weather for the Past 2 Weeks in Richmond Hill, Ontario, Canada

Now
-15 °F

Low level haze.


Feels Like: -43 °F
Forecast: -12 / 5 °F
Wind: 23 mph from North

Location: Toronto Buttonville

Current Time: Feb 13, 2016 at 6:34:28 AM

Latest Report: Feb 13, 2016 at 6:00 AM


Visibility: 15 mi

Pressure: 30.27 "Hg

Humidity: 57%

Dew point: -26 °F

Location of Richmond HillLocation

Historic Weather in Richmond Hill — Graph

°F

Richmond Hill Temperature Yesterday

Maximum temperature yesterday: 23 °F (at 2:00 PM)
Minimum temperature yesterday: 9 °F (at 12:00 AM)
Average temperature yesterday: 16 °F

High & Low Weather Summary for the Past Weeks

 TemperatureHumidityPressure
High59 °F (Feb 3, 3:00 PM)100% (Jan 31, 6:00 PM)30.36 "Hg (Jan 31, 6:00 PM)
Low-13 °F (Feb 13, 5:00 AM)34% (Feb 3, 4:00 PM)29.44 "Hg (Feb 1, 12:00 AM)
Average29 °F73%29.90 "Hg
* Reported Jan 29 5:00 AM — Feb 13 5:00 AM, Richmond Hill, Weather by CustomWeather, © 2016

Note: Actual official high and low records may vary slightly from our data, if they occured in-between our weather recording intervals... More about our weather records

Advertising

Richmond Hill Weather History for the Previous 24 Hours

 ConditionsComfort  
Time TempWeatherWind HumidityBarometerVisibility
5:00 AM
Sat, Feb 13
-13 °FLow level haze.20 mph63%30.24 "Hg15 mi
4:00 AM-9 °FLow level haze.18 mph58%30.19 "Hg14 mi
3:55 AM-9 °FLow level haze.20 mph58%30.19 "Hg13 mi
3:00 AM-6 °FLow level haze.12 mph64%30.16 "Hg15 mi
2:00 AM-2 °FLow level haze.15 mph65%30.12 "Hg15 mi
1:00 AM1 °FPassing clouds.17 mph55%30.08 "Hg15 mi
12:00 AM3 °FSnow flurries. Low level haze.21 mph66%30.04 "Hg14 mi
11:00 PM
Fri, Feb 12
9 °FSnow flurries. Passing clouds.20 mph78%29.99 "Hg2 mi
10:00 PM12 °FSnow flurries. Passing clouds.9 mph79%29.95 "Hg13 mi
9:00 PM14 °FSnow flurries. Partly cloudy.17 mph79%29.92 "Hg8 mi
8:00 PM16 °FSnow flurries. Partly cloudy.12 mph73%29.90 "Hg14 mi
7:00 PM16 °FSnow flurries. Ice fog.13 mph79%29.89 "Hg1 mi
6:00 PM19 °FOvercast.10 mph73%29.86 "Hg15 mi
5:00 PM19 °FOvercast.9 mph79%29.86 "Hg15 mi
4:00 PM23 °FPartly sunny.15 mph50%29.84 "Hg15 mi
3:45 PM23 °FPartly sunny.10 mph58%29.84 "Hg15 mi
3:00 PM21 °FSnow flurries. Overcast.16 mph63%29.84 "Hg5 mi
2:00 PM23 °FOvercast.14 mph58%29.86 "Hg10 mi
1:00 PM21 °FCold.14 mph58%29.89 "HgN/A
12:00 PM19 °FSnow flurries. Overcast.14 mph73%29.93 "Hg3 mi
11:00 AM19 °FOvercast.10 mph63%29.96 "Hg12 mi
10:00 AM18 °FOvercast.10 mph62%29.98 "Hg15 mi
9:00 AM16 °FPartly sunny.10 mph67%30.00 "Hg15 mi
8:00 AM16 °FOvercast.8 mph67%30.02 "Hg15 mi
7:00 AM14 °FPassing clouds.7 mph67%30.04 "Hg15 mi
6:00 AM12 °FPassing clouds.12 mph73%30.05 "Hg15 mi
Weather by CustomWeather, © 2016

See weather overviewHow to use our weather pages